#timestamp,LO_Frequency,Hit,StdDev 
1681448415.8,286046991.1,N
1681448435.6,286046990.4,N
1681448455.5,286046992.0,N
1681448475.3,286046993.0,N
1681448495.1,286046994.8,N
1681448515.9,286046994.5,N
1681448535.7,286046992.3,N
1681448555.6,286046992.3,N
1681448575.4,286046992.3,N
1681448595.2,286046992.1,N
1681448615.1,286046990.5,Y
1681448616.0,286046990.5,P
1681448635.8,286046997.3,N
1681448655.7,286046995.1,N
1681448675.5,286046995.8,N
1681448695.3,286046995.9,N
1681448715.2,286046993.8,N
1681448735.9,286046993.7,Y
1681448755.7,286046999.0,P
1681448775.6,286046999.1,N
1681448795.4,286046996.5,N
1681448815.3,286046997.2,N
1681448835.1,286046999.2,N
1681448836.0,286046999.2,N
1681448855.8,286046997.2,N
1681448875.7,286046997.7,N
1681448895.5,286046996.9,N
1681448915.3,286046999.1,N
1681448935.2,286046999.1,N
1681448955.0,286046996.5,N
1681448955.9,286046996.5,N
1681448975.8,286046997.2,N
1681448995.6,286046996.7,N
1681449015.4,286046996.5,N
1681449035.3,286046998.3,N
1681449055.1,286046999.8,N
1681449075.8,286047001.0,N
1681449095.7,286046998.2,N
1681449115.5,286046998.4,N
1681449135.4,286046999.4,N
1681449155.2,286046998.7,N
1681449175.0,286046999.3,N
1681449175.9,286046999.3,N
1681449195.8,286047000.2,N
1681449215.6,286047002.1,N
1681449235.4,286047002.5,N
1681449255.3,286047002.7,N
1681449275.1,286047000.7,N
1681449295.9,286047000.5,N
1681449315.7,286046998.8,N
1681449335.5,286046998.6,N
1681449355.4,286047001.1,N
1681449375.2,286046998.3,N
1681449395.0,286046998.7,N
1681449395.9,286046998.7,N
1681449415.8,286046998.5,N
1681449435.6,286046996.9,N
1681449455.5,286046997.5,N
1681449475.3,286046999.5,N
1681449495.1,286047002.2,N
1681449515.9,286047004.4,N
1681449535.7,286047002.8,N
1681449555.5,286047002.8,N
1681449575.4,286047000.0,N
1681449595.2,286047000.1,N
1681449615.0,286046998.5,N
1681449616.0,286046998.5,N
1681449635.8,286046998.3,N
1681449655.6,286047003.6,N
1681449675.5,286047003.0,N
1681449695.3,286047006.3,Y
1681449715.1,286047006.8,P
1681449735.9,286047006.2,N
1681449755.7,286047008.7,N
1681449775.6,286047006.6,N
1681449795.4,286047009.1,Y
1681449815.2,286047002.8,P
1681449835.1,286047002.7,N
1681449836.0,286047002.7,N
1681449855.8,286047002.3,N
1681449875.6,286047002.1,N
1681449895.5,286047004.2,Y
1681449915.3,286046998.4,P
1681449935.2,286047000.4,N
1681449955.9,286047001.3,N
1681449975.7,286047004.0,N
1681449995.6,286047003.6,N
1681450015.4,286047002.9,N
1681450035.2,286047005.6,N
1681450055.1,286047007.6,Y
1681450086.0,286047002.9,E
1681450095.0,286047004.4,N
1681450095.9,286047004.4,P
1681450115.8,286047002.1,P
1681450135.6,286046999.7,N
1681450155.5,286046999.9,N
1681450175.3,286047001.5,N
1681450195.1,286047002.1,N
1681450215.9,286046999.8,N
1681450235.7,286047000.1,N
1681450255.5,286047000.2,N
1681450275.4,286046999.7,N
1681450295.2,286046999.9,N
1681450315.1,286047000.2,N
1681450316.0,286047000.2,N
1681450335.8,286047001.4,N
1681450355.6,286047003.8,N
1681450375.5,286047002.0,N
1681450395.3,286047001.3,N
1681450415.1,286047002.1,N
1681450435.9,286047002.6,N
1681450455.7,286047002.6,N
1681450475.6,286047001.8,N
1681450495.4,286047001.6,N
1681450515.2,286047004.4,Y
1681450535.1,286047002.6,P
1681450536.0,286047002.6,P
1681450555.8,286047001.8,P
1681450575.6,286047001.7,Y
1681450595.5,286047001.2,P
1681450615.3,286047000.7,N
1681450635.2,286047000.5,N
1681450655.9,286047004.1,Y
1681450675.7,286047000.1,P
1681450695.6,286047002.4,P
1681450715.4,286047000.7,N
1681450735.3,286046998.1,N
1681450755.1,286046998.9,N
1681450756.0,286046998.9,N
1681450775.8,286046999.2,N
1681450795.7,286046998.9,N
1681450815.5,286046998.1,N
1681450835.3,286046998.8,N
1681450855.2,286047000.9,N
1681450875.0,286047002.7,N
1681450875.9,286047002.7,N
1681450895.8,286047001.4,N
1681450915.6,286047001.3,N
1681450935.4,286047001.4,N
1681450955.3,286047003.5,N
1681450975.1,286047004.7,N
1681450995.8,286047004.9,N
1681451015.7,286047007.5,Y
1681451035.5,286047005.7,P
1681451055.4,286047007.2,P
1681451075.2,286047004.9,N
1681451095.0,286047005.3,N
1681451095.9,286047005.3,N
1681451115.8,286047007.0,Y
1681451135.6,286047002.4,P
1681451155.4,286047001.8,N
1681451175.3,286047003.4,N
1681451195.1,286047004.1,Y
1681451215.9,286047002.8,P
1681451235.7,286047002.1,P
1681451255.5,286047001.8,P
1681451275.4,286047004.3,Y
1681451295.2,286047000.2,P
1681451315.1,286047000.3,N
1681451316.0,286047000.3,N
1681451335.8,286046999.9,N
1681451355.6,286047002.1,N
1681451375.5,286047003.9,Y
1681451395.3,286047004.0,P
1681451415.1,286047001.3,N
1681451435.9,286047004.2,P
1681451455.7,286047003.3,N
1681451475.6,286047003.1,N
1681451495.4,286047005.9,Y
1681451515.2,286047002.6,P
1681451535.1,286047002.5,P
1681451536.0,286047002.5,P
1681451555.8,286047002.6,Y
1681451575.7,286047000.7,P
1681451595.5,286047001.0,N
1681451615.3,286047000.9,N
1681451635.2,286046999.9,N
1681451655.9,286047002.3,N
1681451675.7,286047000.2,N
1681451695.6,286047000.3,N
1681451715.4,286047000.0,N
1681451735.2,286047000.4,N
1681451755.1,286047002.2,N
1681451756.0,286047002.2,N
1681451775.8,286047002.4,N
1681451795.7,286047001.6,N
1681451815.5,286047004.3,Y
1681451835.3,286047002.1,P
1681451855.2,286047001.9,P
1681451875.0,286047001.8,P
1681451875.9,286047001.8,Y
1681451895.8,286047002.6,P
1681451915.6,286047003.9,P
1681451935.4,286047003.3,P
1681451955.3,286047003.5,Y
1681451975.1,286047002.2,P
1681451995.8,286046999.7,N
